Regional Weather Roundup
Issued by NWS Upton, NY

Current Version | Previous Version | Graphics & Text | Print | Product List | Glossary Off
Versions: 1 2 3 4 5 6 7 8 9 10 11 12 13 14 15 16 17 18 19 20 21 22 23 24 25 26

000
ASUS41 KOKX 200205
RWROKX

REGIONAL WEATHER ROUNDUP
NATIONAL WEATHER SERVICE NEW YORK NY
1000 PM EDT SAT APR 19 2014

NOTE: "FAIR" INDICATES FEW OR NO CLOUDS BELOW 12,000 FEET WITH NO
SIGNIFICANT WEATHER AND/OR OBSTRUCTIONS TO VISIBILITY.

NYZ071-072-176-178-NJZ106-104-200300-
NEW YORK CITY METRO AREA


CITY           SKY/WX    TMP DP  RH WIND       PRES   REMARKS
CENTRAL PARK   MOCLDY    58  21  24 NE10      30.35R
LAGUARDIA APRT MOCLDY    57  22  25 NE10      30.32R
KENNEDY INTL   MOCLDY    53  31  42 CALM      30.34R
NEWARK/LIBERTY MOCLDY    58  25  28 NE14      30.32R
TETERBORO      MOCLDY    59  22  24 N6        30.32R
$$

NYZ177-179-078>081-200300-
LONG ISLAND NEW YORK

CITY           SKY/WX    TMP DP  RH WIND       PRES   REMARKS
FARMINGDALE    MOCLDY    54  26  34 NE12      30.32R
ISLIP          MOCLDY    55  28  35 N9        30.31R
SHIRLEY        CLOUDY    50  32  50 N5        30.33R
WESTHAMPTON    CLOUDY    41  28  60 NW9       30.32R
MONTAUK POINT    N/A     47  38  71 E5        30.35R
$$

NYZ052-065-067-200300-
HUDSON VALLEY

CITY           SKY/WX    TMP DP  RH WIND       PRES   REMARKS
WHITE PLAINS   MOCLDY    53  22  29 N12       30.32R
NEWBURGH       CLEAR     50  25  37 NE12      30.36R
MONTGOMERY     PTCLDY    45  33  63 N5        30.34R
POUGHKEEPSIE   CLEAR     50  25  37 NE9       30.35R
ALBANY         MOCLDY    46  22  38 N7        30.40R
$$

NJZ001-105-106-008-010-013-015-019>022-104-200300-
NEW JERSEY

CITY           SKY/WX    TMP DP  RH WIND       PRES   REMARKS
NEWARK/LIBERTY MOCLDY    58  25  28 NE14      30.32R
TETERBORO      MOCLDY    59  22  24 N6        30.32R
CALDWELL       MOCLDY    56  23  27 NE8       30.34R
MORRISTOWN     CLEAR     55  25  30 NE7       30.33R
SOMERVILLE     MOCLDY    49  28  44 NW3       30.30R
LINDEN         FAIR      58  29  33 CALM      30.34R
SUSSEX         PTCLDY    53  26  35 N7        30.35R
ANDOVER          N/A     48  34  58 N3        30.34R
TRENTON        CLOUDY    57  22  25 VRB5      30.31R
MILLVILLE      CLOUDY    46  36  68 CALM      30.30R
ATLANTIC CITY  CLOUDY    45  37  73 CALM      30.31R
WRIGHTSTOWN    CLOUDY    49  32  51 W1        30.29R
TOMS RIVER     CLOUDY    43  34  70 CALM      30.32R
BELMAR         CLOUDY    52  34  50 CALM      30.31R
$$

PAZ047>061-062-071-200300-
EASTERN PENNSYLVANIA

CITY           SKY/WX    TMP DP  RH WIND       PRES   REMARKS
PHILADELPHIA   CLOUDY    56  37  49 S5        30.31R
ALLENTOWN      MOCLDY    49  28  44 N5        30.33R
SCRANTON       PTCLDY    48  26  42 N6        30.36R
$$

CTZ002-004>006-009-010-012-RIZ004-006-007-MAZ004-011-015-200300-
SOUTHERN NEW ENGLAND
 IN CT

CITY           SKY/WX    TMP DP  RH WIND       PRES   REMARKS
BRADLEY INTL   CLEAR     50  26  39 N9        30.35R
HARTFORD       PTCLDY    53  25  33 N8        30.35R
DANBURY        PTCLDY    50  23  34 N6        30.35R
WTRBRY/OXFORD  PTCLDY    46  27  46 N10       30.36R
BRIDGEPORT     MOCLDY    56  28  34 N8        30.33R
MERIDEN        PTCLDY    54  27  35 N7        30.34R
NEW HAVEN      MOCLDY    55  28  35 N9        30.33R
CHESTER        FAIR      54  27  35 N7        30.34R
GROTON         MOCLDY    51  32  48 E10       30.33R
WILLIMANTIC    PTCLDY    48  29  47 N5        30.35R

 IN RI

CITY           SKY/WX    TMP DP  RH WIND       PRES   REMARKS
PROVIDENCE     PTCLDY    48  34  58 VRB5      30.36R
BLOCK ISLAND   MOCLDY    48  32  53 SE8       30.34R
WESTERLY       MOCLDY    49  33  54 E3        30.35R

 IN MA

CITY           SKY/WX    TMP DP  RH WIND       PRES   REMARKS
BOSTON         PTCLDY    48  24  39 N10       30.38R
WORCESTER      CLEAR     45  24  43 NE9       30.35R
WESTFIELD      CLEAR     49  27  42 NE7       30.36R
PROVINCETOWN   CLEAR     45  34  65 MISG      30.37R
NANTUCKET      MOCLDY    44  33  65 NE9       30.35R
$$

ANZ330-335-338-340-345-350-353-355-200300-
COASTAL MARINE OBSERVATIONS


STATION/POSITION TIME  SKY/WX   TEMP    WIND        PRES    VSBY  WAVE
                                AIR SEA DIR/SP/G                  HT/PER
                 (UTC)          (F)     (DEG/KT/KT) (MB)    (MI)  (FT/S)
NY HARB ENTRANCE 0200            49 46  130/  2/  4 1026.2
4S FIRE IS       0100               46                N/A           3/ 9
23SW MTP         0200            46 43  200/  2/  6 1026.0          3/ 9
HUDSON CANYON    0100            47 45  320/  4/  4 1025.3          4/11
EXECUTION ROCKS  0200            51 32   30/  6/  8   N/A
WESTERN LI SOUND 0200            53      20/  8/ 12   N/A           1
CENTRAL LI SOUND 0200            50 43   20/  8/ 10   N/A           1
EASTERN LI SOUND NOT AVBL
ROBBINS REEF     0200            55     180/  7/  8   N/A
$$


>>>>>>>>>>>>>>>>>>>>>>>>>>>> KEY <<<<<<<<<<<<<<<<<<<<<<<<<<<
>                                                          <
>     SKY/WX - SKY CONDITION/PRESENT WEATHER               <
>     TMP    - TEMPERATURE IN FAHRENHEIT                   <
>     DP     - DEWPOINT IN FAHRENHEIT                      <
>     RH     - RELATIVE HUMIDITY IN PERCENT                <
>     WIND   - DIRECTION AND SPEED IN MPH                  <
>     PRES   - MEAN SEA LEVEL PRESSURE IN INCHES OF HG     <
>     WCI    - WIND CHILL INDEX                            <
>     VSB    - VISIBILITY IN MILES                         <
>     HX     - HEAT INDEX                                  <
>     TC     - TEMPERATURE IN CELSIUS                      <
>     VRB    - VARIABLE WIND DIRECTION                     <
>                                                          <
>>>>>>>>>>>>>>>>>>>>>>>>>>>> KEY <<<<<<<<<<<<<<<<<<<<<<<<<<<





USA.gov is the U.S. government's official web portal to all federal, state and local government web resources and services.